Kaneohe MCBH, HI

10:26 AM HST on May 24, 2018 (GMT -1000)
Kaneohe Bay Marine Corps Air Facility

Weather History for PHNG - June, 2013

Change the Weather History Date:

Sunday, June 2, 2013

  Actual Average Record
Temperature  
Mean Temperature 78 °F -  
Max Temperature 82 °F 78 °F 84 °F (2014)
Min Temperature 74 °F 71 °F 69 °F (2014)
Cooling Degree Days 13    
Growing Degree Days 28 (Base 50)    
Moisture  
Dew Point 71 °F    
Average Humidity 81    
Maximum Humidity 91    
Minimum Humidity 64    
Precipitation  
Precipitation 0.00 in - - ()
Sea Level Pressure  
Sea Level Pressure 30.09 in    
Wind  
Wind Speed 10 mph (ENE)    
Max Wind Speed 14 mph    
Max Gust Speed 23 mph    
Visibility 9 miles    
Events Rain    
Averages and records for this station are not official NWS values.
T = Trace of Precipitation, MM = Missing Value Source: NWS Daily Summary

Daily Weather History Graph

Daily Weather History Graph

Search for Another Location

Airport or City:

Astronomy

Jun. 02, 2013 Rise Set
Actual Time 5:48 AM HST 7:10 PM HST
Civil Twilight 5:23 AM HST 7:34 PM HST
Nautical Twilight 4:54 AM HST 8:04 PM HST
Astronomical Twilight 4:23 AM HST 8:34 PM HST
Moon 1:44 AM HST (6/2) 2:24 PM HST (6/2)
Length of Visible Light 14h 11m
Length of Day
13h 22m
Waning Crescent, 28% of the Moon is Illuminated
Jun 2
Waning Crescent
Jun 8
New
Jun 16
First Quarter
Jun 23
Full
Jun 29
Last Quarter

Hourly Weather History & Observations

Time (HST) Temp. Heat Index Dew Point Humidity Pressure Visibility Wind Dir Wind Speed Gust Speed Precip Events Conditions
12:57 AM 75.9 °F - 72.0 °F 87% 30.09 in 10.0 mi East 10.4 mph 18.4 mph N/A Rain Light Rain
1:04 AM 75.2 °F - 71.6 °F 89% 30.10 in 6.2 mi East 9.2 mph 16.1 mph N/A Rain Light Rain
1:57 AM 74.8 °F - 72.0 °F 91% 30.08 in 10.0 mi East 6.9 mph - N/A   Overcast
2:57 AM 75.4 °F - 72.0 °F 89% 30.06 in 10.0 mi ENE 10.4 mph - N/A   Mostly Cloudy
3:13 AM 75.2 °F - 71.6 °F 89% 30.07 in 6.2 mi ENE 6.9 mph - N/A   Overcast
3:57 AM 75.9 °F - 72.0 °F 87% 30.06 in 10.0 mi East 13.8 mph 20.7 mph N/A   Overcast
4:07 AM 75.2 °F - 71.6 °F 89% 30.07 in 6.2 mi East 13.8 mph 21.9 mph N/A   Overcast
4:33 AM 75.2 °F - 71.6 °F 89% 30.08 in 6.2 mi East 6.9 mph 19.6 mph N/A Rain Light Rain
4:57 AM 74.7 °F - 71.1 °F 88% 30.06 in 10.0 mi East 10.4 mph 16.1 mph N/A   Overcast
5:17 AM 75.2 °F - 71.6 °F 89% 30.08 in 6.2 mi ENE 10.4 mph 17.3 mph N/A   Overcast
5:57 AM 74.7 °F - 72.0 °F 91% 30.07 in 10.0 mi NE 11.5 mph 16.1 mph N/A   Overcast
6:41 AM 75.2 °F - 71.6 °F 89% 30.09 in 6.2 mi ENE 10.4 mph 17.3 mph N/A   Mostly Cloudy
6:57 AM 77.0 °F - 71.1 °F 82% 30.08 in 10.0 mi ENE 4.6 mph - N/A   Mostly Cloudy
7:57 AM 78.3 °F - 71.1 °F 78% 30.10 in 10.0 mi NE 6.9 mph - N/A   Overcast
8:22 AM 78.8 °F - 73.4 °F 83% 30.12 in 6.2 mi ENE 9.2 mph 19.6 mph N/A Rain Light Rain
8:53 AM 78.8 °F - 73.4 °F 83% 30.12 in 6.2 mi ENE 9.2 mph - N/A   Overcast
8:57 AM 78.3 °F - 73.0 °F 84% 30.11 in 10.0 mi ENE 10.4 mph 18.4 mph N/A   Overcast
9:57 AM 77.0 °F - 72.0 °F 84% 30.11 in 10.0 mi ENE 6.9 mph - N/A   Overcast
10:24 AM 78.8 °F - 73.4 °F 83% 30.12 in 6.2 mi ENE 10.4 mph 17.3 mph N/A   Mostly Cloudy
10:35 AM 78.8 °F - 73.4 °F 83% 30.12 in 6.2 mi ENE 10.4 mph 19.6 mph N/A   Mostly Cloudy
10:46 AM 78.8 °F - 73.4 °F 83% 30.12 in 6.2 mi ENE 10.4 mph 23.0 mph N/A Rain Light Rain
10:57 AM 78.8 °F - 73.9 °F 85% 30.10 in 10.0 mi East 10.4 mph 20.7 mph N/A   Overcast
11:06 AM 80.6 °F 84.6 °F 71.6 °F 74% 30.12 in 6.2 mi ENE 6.9 mph 17.3 mph N/A Rain Light Rain
11:57 AM 80.6 °F 84.7 °F 72.0 °F 75% 30.10 in 10.0 mi ENE 9.2 mph 18.4 mph N/A   Mostly Cloudy
12:57 PM 78.8 °F - 73.9 °F 85% 30.09 in 5.0 mi East 10.4 mph 20.7 mph N/A Rain Light Rain
1:57 PM 78.8 °F - 73.0 °F 82% 30.08 in 10.0 mi East 12.7 mph 23.0 mph 0.00 in   Mostly Cloudy
2:04 PM 78.8 °F - 69.8 °F 74% 30.09 in 10.0 mi ENE 11.5 mph 19.6 mph N/A   Scattered Clouds
2:57 PM 78.8 °F - 70.0 °F 74% 30.07 in 10.0 mi ENE 11.5 mph 20.7 mph N/A   Overcast
3:57 PM 82.4 °F 85.8 °F 69.1 °F 64% 30.07 in 10.0 mi ENE 10.4 mph 17.3 mph N/A   Overcast
4:57 PM 82.4 °F 85.8 °F 69.1 °F 64% 30.07 in 10.0 mi ENE 10.4 mph 18.4 mph N/A   Overcast
5:57 PM 82.4 °F 85.8 °F 69.1 °F 64% 30.07 in 10.0 mi East 10.4 mph 18.4 mph 0.00 in   Overcast
6:57 PM 77.0 °F - 66.9 °F 71% 30.09 in 10.0 mi ENE 9.2 mph 18.4 mph 0.00 in   Overcast
7:57 PM 77.0 °F - 71.1 °F 82% 30.10 in 10.0 mi ENE 12.7 mph 18.4 mph 0.00 in   Overcast
8:57 PM 77.0 °F - 68.0 °F 74% 30.12 in 10.0 mi ENE 9.2 mph - N/A   Overcast
9:57 PM 77.0 °F - 69.1 °F 76% 30.12 in 10.0 mi ENE 9.2 mph 19.6 mph N/A   Overcast
10:57 PM 77.0 °F - 69.1 °F 76% 30.12 in 10.0 mi ENE 9.2 mph 16.1 mph N/A   Mostly Cloudy
11:57 PM 77.0 °F - 66.0 °F 69% 30.11 in 10.0 mi ENE 9.2 mph - N/A   Partly Cloudy